CW3766 Weather Reports


time (UTC)temp
F
wind
direction
speed
knots
gust
knots
rain 1hr
in
rain 24hr
in
rain mn
in
humidity
%
barometer
mb
20260510061103 53 174 0.0 0.0 0.00 0.00 0.00 91 1009.7
20260510060603 53 174 0.0 0.0 0.00 0.00 0.00 91 1009.8
20260510055602 52 167 0.0 1.7 0.00 0.00 0.00 92 1009.6
20260510055103 52 324 0.0 0.0 0.00 0.00 0.00 92 1009.7
20260510054604 53 324 0.0 0.0 0.00 0.00 0.00 92 1009.7
20260510053603 53 324 0.0 0.0 0.00 0.00 0.00 91 1009.7
20260510053104 53 324 0.0 0.0 0.00 0.00 0.00 91 1009.8
20260510052103 54 324 0.0 0.0 0.00 0.00 0.00 91 1009.9
20260510051603 54 324 0.0 0.0 0.00 0.00 0.00 90 1009.8
20260510051103 54 324 0.0 0.0 0.00 0.00 0.00 90 1009.9
20260510050603 54 324 0.0 0.0 0.00 0.00 0.00 90 1009.8
20260510050103 55 324 0.0 0.0 0.00 0.00 0.00 90 1009.9
20260510045603 55 324 0.0 0.0 0.00 0.00 0.00 89 1009.9
20260510045103 55 324 0.0 0.0 0.00 0.00 0.00 89 1009.8
20260510044103 55 324 0.0 0.0 0.00 0.00 0.00 90 1009.7
20260510043103 56 324 0.0 0.0 0.00 0.00 0.00 90 1009.7
20260510042603 56 324 0.0 1.7 0.00 0.00 0.00 89 1009.7
20260510042103 56 335 0.0 1.7 0.00 0.00 0.00 89 1009.6
20260510041603 57 336 0.9 1.7 0.00 0.00 0.00 89 1009.5
20260510041103 57 326 0.0 0.0 0.00 0.00 0.00 88 1009.5
20260510040603 57 326 0.0 0.0 0.00 0.00 0.00 88 1009.4
20260510035603 57 326 0.0 0.0 0.00 0.00 0.00 88 1009.4
20260510035104 57 326 0.0 0.0 0.00 0.00 0.00 88 1009.4
20260510034603 57 326 0.0 0.0 0.00 0.00 0.00 88 1009.4
20260510034103 57 326 0.0 0.0 0.00 0.00 0.00 88 1009.4
20260510033603 57 326 0.0 0.0 0.00 0.00 0.00 88 1009.4
20260510032603 57 137 0.0 0.0 0.00 0.00 0.00 87 1009.3
20260510032103 58 137 0.0 0.0 0.00 0.00 0.00 87 1009.3
20260510031603 58 137 0.0 0.0 0.00 0.00 0.00 87 1009.2
20260510031103 58 137 0.0 0.0 0.00 0.00 0.00 87 1009.3
20260510030603 58 137 0.0 0.0 0.00 0.00 0.00 87 1009.2
20260510025103 59 137 0.0 0.0 0.00 0.00 0.00 86 1009.2
20260510024104 60 137 0.0 0.0 0.00 0.00 0.00 85 1009.1
20260510023603 60 137 0.0 0.0 0.00 0.00 0.00 84 1009.0
20260510023103 60 137 0.0 0.0 0.00 0.00 0.00 84 1008.9
20260510022603 61 137 0.0 0.0 0.00 0.00 0.00 83 1008.8
20260510022103 61 137 0.0 0.0 0.00 0.00 0.00 82 1008.9
20260510021603 61 137 0.0 0.0 0.00 0.00 0.00 81 1008.9
20260510020103 62 137 0.0 0.0 0.00 0.00 0.00 80 1008.6
20260510015604 62 137 0.0 0.0 0.00 0.00 0.00 80 1008.5
20260510015103 62 137 0.0 0.0 0.00 0.00 0.00 80 1008.5
20260510014603 62 137 0.0 0.0 0.00 0.00 0.00 79 1008.5
20260510014103 62 137 0.0 0.0 0.00 0.00 0.00 80 1008.5
20260510013604 62 137 0.0 0.0 0.00 0.00 0.00 80 1008.4
20260510012603 63 137 0.0 0.0 0.00 0.00 0.00 78 1008.2
20260510012102 63 137 0.0 0.0 0.00 0.00 0.00 77 1008.0
20260510011603 64 137 0.0 0.0 0.00 0.00 0.00 76 1007.9
20260510011103 64 137 0.0 0.0 0.00 0.00 0.00 75 1007.9
20260510010603 64 137 0.0 0.0 0.00 0.00 0.00 74 1007.9
20260510010104 65 137 0.0 0.0 0.00 0.00 0.00 74 1007.7
20260510005603 65 137 0.0 0.0 0.00 0.00 0.00 73 1007.7
20260510005104 65 137 0.0 0.0 0.00 0.00 0.00 72 1007.6
20260510004603 66 137 0.0 0.0 0.00 0.00 0.00 71 1007.5
20260510004103 66 137 0.0 0.0 0.00 0.00 0.00 70 1007.5
20260510003603 67 137 0.0 0.0 0.00 0.00 0.00 68 1007.5
20260510003104 67 137 0.0 0.0 0.00 0.00 0.00 67 1007.5
20260510002604 67 137 0.0 0.0 0.00 0.00 0.00 67 1007.5
20260510002103 68 137 0.0 0.0 0.00 0.00 0.00 66 1007.4
20260510001603 69 137 0.0 0.0 0.00 0.00 0.00 64 1007.3
20260510001103 69 137 0.0 0.0 0.00 0.00 0.00 63 1007.3
20260510000603 70 137 0.0 0.0 0.00 0.00 0.00 62 1007.2
20260510000103 71 137 0.0 0.0 0.00 0.00 0.00 61 1007.2
20260509235103 72 137 0.0 0.0 0.00 0.00 0.00 58 1007.1
20260509234603 72 137 0.0 0.0 0.00 0.00 0.00 57 1007.1
20260509234103 73 137 0.0 0.0 0.00 0.00 0.00 56 1007.0
20260509233604 73 137 0.0 0.0 0.00 0.00 0.00 54 1007.0
20260509233104 73 137 0.0 1.7 0.00 0.00 0.00 54 1006.9
20260509232603 74 193 0.0 1.7 0.00 0.00 0.00 53 1006.9
20260509232103 74 131 0.9 1.7 0.00 0.00 0.00 53 1006.9
20260509231604 74 139 0.0 4.3 0.00 0.00 0.00 53 1006.9
20260509231104 74 132 0.9 2.6 0.00 0.00 0.00 52 1006.9
20260509230603 75 194 1.7 4.3 0.00 0.00 0.00 51 1006.9
20260509225603 75 182 0.9 2.6 0.00 0.00 0.00 48 1006.9
20260509225103 75 325 0.0 1.7 0.00 0.00 0.00 46 1006.8
20260509224603 76 150 0.0 0.9 0.00 0.00 0.00 45 1006.8
20260509224103 76 307 0.0 1.7 0.00 0.00 0.00 45 1006.8
20260509223603 76 228 0.0 1.7 0.00 0.00 0.00 45 1006.8
20260509223103 76 299 0.9 5.2 0.00 0.00 0.00 46 1006.8
20260509222103 76 327 0.9 2.6 0.00 0.00 0.00 44 1006.8
20260509221603 75 253 1.7 4.3 0.00 0.00 0.00 46 1006.9
20260509221103 75 188 0.0 5.2 0.00 0.00 0.00 47 1006.9
20260509220603 75 218 0.9 4.3 0.00 0.00 0.00 47 1006.9
20260509220104 74 233 0.0 1.7 0.00 0.00 0.00 48 1006.8
20260509215603 74 29 1.7 4.3 0.00 0.00 0.00 47 1006.8
20260509215103 74 304 1.7 4.3 0.00 0.00 0.00 46 1006.8
20260509214103 75 212 3.5 7.0 0.00 0.00 0.00 45 1006.7
20260509213604 75 261 1.7 4.3 0.00 0.00 0.00 45 1006.7
20260509213103 75 298 1.7 4.3 0.00 0.00 0.00 47 1006.7
20260509212603 75 196 2.6 7.0 0.00 0.00 0.00 46 1006.7
20260509212103 75 313 0.9 2.6 0.00 0.00 0.00 46 1006.6
20260509211603 75 307 2.6 5.2 0.00 0.00 0.00 46 1006.6
20260509211103 75 268 3.5 7.8 0.00 0.00 0.00 47 1006.6
20260509210604 77 247 3.5 7.8 0.00 0.00 0.00 46 1006.6
20260509205104 76 197 3.5 7.8 0.00 0.00 0.00 45 1006.6
20260509204104 77 164 1.7 6.1 0.00 0.00 0.00 46 1006.7
20260509203603 76 144 2.6 8.7 0.00 0.00 0.00 48 1006.7
20260509203103 76 214 0.9 8.7 0.00 0.00 0.00 48 1006.7
20260509202103 75 300 1.7 10.4 0.00 0.00 0.00 49 1006.7
20260509201604 75 223 2.6 7.8 0.00 0.00 0.00 49 1006.6
20260509201103 75 190 3.5 6.1 0.00 0.00 0.00 51 1006.7
20260509200604 74 224 1.7 8.7 0.00 0.00 0.00 52 1006.8
20260509195604 74 215 1.7 6.1 0.00 0.00 0.00 52 1007.0
20260509195104 74 263 0.9 4.3 0.00 0.00 0.00 52 1007.2
20260509194603 74 215 3.5 8.7 0.00 0.00 0.00 53 1007.2
20260509194104 74 201 4.3 7.8 0.00 0.00 0.00 53 1007.3
20260509193604 74 205 2.6 8.7 0.00 0.00 0.00 51 1007.4
20260509193103 73 192 1.7 10.4 0.00 0.00 0.00 53 1007.4
20260509192603 72 176 5.2 7.8 0.00 0.00 0.00 54 1007.6
20260509192103 72 212 3.5 6.1 0.00 0.00 0.00 55 1007.7
20260509191604 72 232 2.6 7.8 0.00 0.00 0.00 54 1007.8
20260509191103 71 167 1.7 7.8 0.00 0.00 0.00 56 1007.9
20260509190604 71 191 6.1 12.2 0.00 0.00 0.00 56 1007.9
20260509190104 71 184 4.3 11.3 0.00 0.00 0.00 56 1008.0
20260509185603 71 193 2.6 7.8 0.00 0.00 0.00 57 1008.0
20260509184604 71 255 3.5 7.8 0.00 0.00 0.00 57 1007.9
20260509184104 71 230 2.6 7.0 0.00 0.00 0.00 56 1007.9
20260509183104 70 240 2.6 7.8 0.00 0.00 0.00 57 1008.0
20260509182604 70 231 1.7 5.2 0.00 0.00 0.00 57 1008.2
20260509182104 70 294 0.9 4.3 0.00 0.00 0.00 57 1008.3
20260509181603 70 306 0.9 2.6 0.00 0.00 0.00 58 1008.3
20260509181104 69 297 1.7 4.3 0.00 0.00 0.00 58 1008.5
20260509180603 69 161 0.9 5.2 0.00 0.00 0.00 58 1008.6
20260509180103 69 312 1.7 5.2 0.00 0.00 0.00 59 1008.7
20260509175104 69 288 0.9 6.1 0.00 0.00 0.00 58 1008.9
20260509174103 69 141 1.7 5.2 0.00 0.00 0.00 58 1009.0
20260509173603 69 272 2.6 4.3 0.00 0.00 0.00 58 1009.1
20260509173103 69 241 2.6 6.1 0.00 0.00 0.00 58 1009.0
20260509172604 69 209 1.7 7.8 0.00 0.00 0.00 58 1009.0
20260509172103 69 189 2.6 7.8 0.00 0.00 0.00 58 1009.0
20260509171603 69 222 1.7 6.1 0.00 0.00 0.00 58 1009.0
20260509171104 69 290 1.7 7.0 0.00 0.00 0.00 58 1009.0
20260509170604 69 241 3.5 7.8 0.00 0.00 0.00 58 1009.0
20260509165603 70 226 3.5 10.4 0.00 0.00 0.00 56 1009.0
20260509165104 69 181 1.7 7.8 0.00 0.00 0.00 58 1009.0
20260509164604 69 255 2.6 8.7 0.00 0.00 0.00 57 1009.0
20260509164104 69 200 2.6 7.0 0.00 0.00 0.00 58 1009.1
20260509163604 69 187 2.6 7.8 0.00 0.00 0.00 57 1009.1
20260509163104 69 246 4.3 11.3 0.00 0.00 0.00 59 1009.2
20260509162104 70 239 3.5 8.7 0.00 0.00 0.00 57 1009.2
20260509161604 69 159 2.6 7.0 0.00 0.00 0.00 56 1009.2
20260509161103 69 267 1.7 10.4 0.00 0.00 0.00 58 1009.2
20260509160104 68 174 5.2 11.3 0.00 0.00 0.00 59 1009.3
20260509155103 68 154 2.6 8.7 0.00 0.00 0.00 57 1009.3
20260509154604 68 158 2.6 12.2 0.00 0.00 0.00 58 1009.4
20260509154103 68 208 1.7 8.7 0.00 0.00 0.00 58 1009.5
20260509153604 68 215 2.6 10.4 0.00 0.00 0.00 57 1009.5
20260509153103 68 287 1.7 5.2 0.00 0.00 0.00 57 1009.5
20260509152604 68 178 5.2 11.3 0.00 0.00 0.00 56 1009.5
20260509152103 68 200 4.3 10.4 0.00 0.00 0.00 55 1009.5
20260509151603 68 225 1.7 7.0 0.00 0.00 0.00 56 1009.5
20260509151104 67 181 1.7 7.8 0.00 0.00 0.00 56 1009.6
20260509150603 67 174 2.6 10.4 0.00 0.00 0.00 57 1009.7
20260509150104 66 194 5.2 8.7 0.00 0.00 0.00 57 1009.7
20260509145604 66 147 3.5 12.2 0.00 0.00 0.00 58 1009.7
20260509145104 66 194 4.3 10.4 0.00 0.00 0.00 58 1009.7
20260509144604 65 219 2.6 8.7 0.00 0.00 0.00 58 1009.8
20260509143604 64 228 2.6 7.8 0.00 0.00 0.00 60 1010.0
20260509143103 63 255 4.3 11.3 0.00 0.00 0.00 61 1010.1
20260509142604 63 209 2.6 7.8 0.00 0.00 0.00 61 1010.2
20260509142103 63 194 1.7 7.0 0.00 0.00 0.00 60 1010.3
20260509141603 62 175 2.6 8.7 0.00 0.00 0.00 62 1010.3
20260509141103 62 158 1.7 7.0 0.00 0.00 0.00 62 1010.4
20260509140103 61 205 3.5 7.8 0.00 0.00 0.00 62 1010.4
20260509135602 61 184 0.9 6.1 0.00 0.00 0.00 63 1010.4
20260509135103 60 183 3.5 7.0 0.00 0.00 0.00 63 1010.3
20260509134602 60 179 1.7 4.3 0.00 0.00 0.00 63 1010.3
20260509134102 60 187 1.7 4.3 0.00 0.00 0.00 63 1010.4
20260509133602 60 188 0.0 4.3 0.00 0.00 0.00 63 1010.4
20260509133103 60 262 2.6 4.3 0.00 0.00 0.00 62 1010.4
20260509132602 59 189 0.0 2.6 0.00 0.00 0.00 64 1010.5
20260509132102 59 203 1.7 5.2 0.00 0.00 0.00 64 1010.6
20260509131603 59 268 1.7 5.2 0.00 0.00 0.00 63 1010.5
20260509131103 59 199 3.5 5.2 0.00 0.00 0.00 63 1010.5
20260509130602 59 227 1.7 4.3 0.00 0.00 0.00 63 1010.5
20260509125603 59 185 4.3 8.7 0.00 0.00 0.00 62 1010.3
20260509125103 59 158 4.3 10.4 0.00 0.00 0.00 62 1010.3
20260509124103 59 203 1.7 7.8 0.00 0.00 0.00 62 1010.4
20260509123603 59 106 5.2 7.0 0.00 0.00 0.00 61 1010.4
20260509122603 59 167 1.7 7.0 0.00 0.00 0.00 61 1010.4
20260509122102 59 177 3.5 7.0 0.00 0.00 0.00 60 1010.3
20260509121603 59 188 4.3 7.8 0.00 0.00 0.00 60 1010.4
20260509121102 58 195 2.6 6.1 0.00 0.00 0.00 60 1010.4
20260509120603 58 183 2.6 7.0 0.00 0.00 0.00 60 1010.5
20260509115602 58 177 2.6 7.8 0.00 0.00 0.00 60 1010.3
20260509115103 58 177 2.6 7.8 0.00 0.00 0.00 60 1010.2
20260509114603 58 182 1.7 5.2 0.00 0.00 0.00 60 1010.3
20260509114102 58 175 1.7 6.1 0.00 0.00 0.00 60 1010.3
20260509113603 58 160 3.5 5.2 0.00 0.00 0.00 60 1010.3
20260509112602 58 250 0.9 4.3 0.00 0.00 0.00 61 1010.4
20260509112102 58 178 2.6 5.2 0.00 0.00 0.00 60 1010.2
20260509111603 58 170 2.6 5.2 0.00 0.00 0.00 61 1010.0
20260509110603 57 163 2.6 6.1 0.00 0.00 0.00 61 1010.1
20260509105602 57 179 3.5 6.1 0.00 0.00 0.00 61 1010.0
20260509105103 57 187 2.6 6.1 0.00 0.00 0.00 61 1010.0
20260509104603 57 193 2.6 7.0 0.00 0.00 0.00 61 1009.9
20260509104108 57 183 2.6 6.1 0.00 0.00 0.00 61 1009.9
20260509103602 57 204 2.6 6.1 0.00 0.00 0.00 61 1010.0
20260509102602 57 175 1.7 4.3 0.00 0.00 0.00 61 1010.0
20260509101602 57 194 1.7 4.3 0.00 0.00 0.00 60 1009.9
20260509101103 57 212 0.9 4.3 0.00 0.00 0.00 61 1009.8
20260509100603 57 172 0.9 1.7 0.00 0.00 0.00 60 1009.9
20260509100103 57 197 2.6 4.3 0.00 0.00 0.00 60 1009.9
20260509095603 57 176 2.6 5.2 0.00 0.00 0.00 60 1009.8
20260509095103 57 159 2.6 5.2 0.00 0.00 0.00 60 1009.8
20260509094603 57 178 2.6 5.2 0.00 0.00 0.00 59 1009.7
20260509094103 57 171 0.9 4.3 0.00 0.00 0.00 59 1009.8
20260509093603 58 190 1.7 4.3 0.00 0.00 0.00 59 1009.8
20260509092603 58 197 1.7 4.3 0.00 0.00 0.00 59 1009.9
20260509091603 58 245 0.9 2.6 0.00 0.00 0.00 59 1010.2
20260509091102 58 198 1.7 4.3 0.00 0.00 0.00 59 1010.1
20260509084103 58 187 1.7 7.0 0.00 0.00 0.00 58 1010.2
20260509083603 58 182 4.3 7.8 0.00 0.00 0.00 57 1010.2
20260509083102 58 203 2.6 7.0 0.00 0.00 0.00 57 1010.2
20260509082603 58 182 2.6 7.0 0.00 0.00 0.00 57 1010.2
20260509082102 58 172 2.6 8.7 0.00 0.00 0.00 57 1010.3
20260509081603 58 197 1.7 7.8 0.00 0.00 0.00 57 1010.3
20260509081103 58 184 2.6 7.8 0.00 0.00 0.00 57 1010.4
20260509080602 58 183 4.3 7.0 0.00 0.00 0.00 57 1010.5
20260509075603 58 181 3.5 7.0 0.00 0.00 0.00 58 1010.5
20260509075103 58 155 0.9 2.6 0.00 0.00 0.00 59 1010.6
20260509074603 58 209 1.7 7.8 0.00 0.00 0.00 58 1010.6
20260509074103 58 165 1.7 7.0 0.00 0.00 0.00 58 1010.6
20260509073603 58 165 2.6 7.0 0.00 0.00 0.00 56 1010.6
20260509073102 58 189 4.3 7.8 0.00 0.00 0.00 55 1010.6
20260509072103 58 162 2.6 7.0 0.00 0.00 0.00 55 1010.5
20260509071602 58 181 3.5 6.1 0.00 0.00 0.00 55 1010.5
20260509070603 58 182 4.3 7.0 0.00 0.00 0.00 55 1010.5
20260509065603 59 153 2.6 4.3 0.00 0.00 0.00 55 1010.5
20260509064603 59 195 2.6 5.2 0.00 0.00 0.00 54 1010.5
20260509064103 59 166 3.5 6.1 0.00 0.00 0.00 54 1010.5
20260509063103 59 164 2.6 7.0 0.00 0.00 0.00 54 1010.6
20260509061603 59 180 2.6 6.1 0.00 0.00 0.00 54 1010.7